Location: Altleiningen
(49.5078°N, 8.0741°E)
Time: 11:47:13
(UTC+00:00)

Cosmos 1821 Rocket - Pass Details

Date: 03 March 2021
Orbit: 945 x 1005 km, 82.9° (Epoch: 12 April)

Event Time Altitude Azimuth Distance (km) Brightness Sun altitude
Exits shadow 20:42:01 64° 313° (NW) 1,068 4.3 -33.2°
Drops below altitude 10° 20:47:38 10° 5° (N) 2,703 6.6 -33.9°
Sets 20:50:09 0° 8° (N) 3,646 7.3 -34.2°
